User: anonymous   Login
Location: Centerville
(32.8776°N, 96.6203°W)
Time: 20:14:39
(UTC+00:00)
Language:

FENGYUN 1C DEB - Orbit

View from above orbital plane
View from above orbital plane
View from above satellite
View from above satellite

Ground track
Ground track

The orbit data is extracted from the following two-line orbital elements,

1 30106U 99025RK  22021.43056990  .00002679  00000-0  92729-3 0  9994
2 30106  98.9569 184.0863 0122367 145.6663 269.1851 14.32432897779569
Epoch (UTC): 21 January 2022 10:20:01
Eccentricity: 0.0122367
inclination: 98.9569°
perigee height: 696 km
apogee height: 871 km
right ascension of ascending node: 184.0863°
argument of perigee: 145.6663°
revolutions per day: 14.32432897
mean anomaly at epoch: 269.1851°
orbit number at epoch: 77956

The dashed part of the orbit path shows where the satellite is in the earth's shadow,  

DLR